WetterOnline ( https://www.wetteronline.ch )

Wetter aktuell Pinneberg

Aktuelles Wetter: Quickborn (17m)

6-stündlich | Neueste Meldungen
Ortszeit Temperatur Wetter
Di, 14.07. 2:00 9.9° C Nebel
Mo, 13.07. 20:00 19.6° C wolkig
Mo, 13.07. 14:00 18.8° C wolkig
Mo, 13.07. 8:00 13.1° C wolkig
Mo, 13.07. 2:00 7.3° C Nebel
So, 12.07. 20:00 18.3° C wolkenlos
So, 12.07. 14:00 18.4° C bedeckt
So, 12.07. 8:00 12.0° C bewölkt
Ortszeit Temperatur Wetter
Di, 14.07. 5:10 8.7° C bedeckt
Di, 14.07. 5:00 8.6° C bewölkt
Di, 14.07. 4:50 8.6° C bewölkt
Di, 14.07. 4:40 8.5° C bewölkt
Di, 14.07. 4:30 8.5° C wolkig
Di, 14.07. 4:20 8.5° C wolkig
Di, 14.07. 4:00 8.7° C wolkig
Di, 14.07. 3:00 9.2° C Nebel
Di, 14.07. 1:00 10.5° C Nebel
Ortszeit Relative Feuchte Sichtweite
Di, 14.07. 2:00 100% 0.5 km
Mo, 13.07. 20:00 55% >70 km
Mo, 13.07. 14:00 54% 55 km
Mo, 13.07. 8:00 86% 30 km
Mo, 13.07. 2:00 100% 0.5 km
So, 12.07. 20:00 55% >70 km
So, 12.07. 14:00 56% 55 km
So, 12.07. 8:00 88% 50 km
Ortszeit Relative Feuchte Sichtweite
Di, 14.07. 5:10 99% -
Di, 14.07. 5:00 99% 5.0 km
Di, 14.07. 4:50 99% -
Di, 14.07. 4:40 100% -
Di, 14.07. 4:30 100% 4.3 km
Di, 14.07. 4:20 100% -
Di, 14.07. 4:00 99% 1.2 km
Di, 14.07. 3:00 99% 0.5 km
Di, 14.07. 1:00 97% 0.5 km
Ortszeit Niederschlagsmenge Niederschlagsart
Di, 14.07. 2:00 0.0 l/m2 in 6 Std. -
Mo, 13.07. 20:00 0.0 l/m2 in 12 Std. -
Mo, 13.07. 14:00 0.0 l/m2 in 6 Std. -
Mo, 13.07. 8:00 0.0 l/m2 in 12 Std. -
Mo, 13.07. 2:00 0.0 l/m2 in 6 Std. -
So, 12.07. 20:00 0.0 l/m2 in 12 Std. -
So, 12.07. 14:00 0.0 l/m2 in 6 Std. -
So, 12.07. 8:00 0.0 l/m2 in 12 Std. -
Ortszeit Niederschlagsmenge Niederschlagsart
Di, 14.07. 5:10 keine Meldung -
Di, 14.07. 5:00 0.0 l/m2 in 1 Std. -
Di, 14.07. 4:50 keine Meldung -
Di, 14.07. 4:40 keine Meldung -
Di, 14.07. 4:30 0.0 l/m2 in 1 Std. -
Di, 14.07. 4:20 keine Meldung -
Di, 14.07. 4:00 0.0 l/m2 in 1 Std. -
Di, 14.07. 3:00 keine Meldung -
Di, 14.07. 1:00 keine Meldung -
Ortszeit Stärke Spitze Richtung
km/h Bft. km/h Grad Sektor
Di, 14.07. 2:00 0 0 14 - -
Mo, 13.07. 20:00 9 2 30 320° NW
Mo, 13.07. 14:00 13 3 28 260° W
Mo, 13.07. 8:00 4 1 7 210° SW
Mo, 13.07. 2:00 4 1 18 180° S
So, 12.07. 20:00 11 2 35 290° W
So, 12.07. 14:00 18 3 32 310° NW
So, 12.07. 8:00 6 1 13 270° W
Ortszeit Stärke Spitze Richtung
km/h Bft. km/h Grad Sektor
Di, 14.07. 5:10 2 1 - 230° SW
Di, 14.07. 5:00 0 0 4 - -
Di, 14.07. 4:50 0 0 - 140° SO
Di, 14.07. 4:40 2 1 - 140° SO
Di, 14.07. 4:30 0 0 4 - -
Di, 14.07. 4:20 0 0 - 130° SO
Di, 14.07. 4:00 4 1 7 100° O
Di, 14.07. 3:00 0 0 4 - -
Di, 14.07. 1:00 0 0 4 - -
Ortszeit Untergrenze Bedeckung Gattung
total tief tief mittel hoch
Di, 14.07. 2:00 - 0/8 0/8 - - -
Mo, 13.07. 20:00 5100 m 8/8 3/8 - - -
Mo, 13.07. 14:00 1320 m 7/8 5/8 - - -
Mo, 13.07. 8:00 10500 m 8/8 0/8 - - -
Mo, 13.07. 2:00 - 0/8 0/8 - - -
So, 12.07. 20:00 - 0/8 0/8 - - -
So, 12.07. 14:00 1320 m 8/8 8/8 - - -
So, 12.07. 8:00 720 m 7/8 7/8 - - -
Ortszeit Bedeckungsgrad in Achtel und Wolkenuntergrenze
Di, 14.07. 5:10 8(5700m) 8(6600m) 8(7200m)
Di, 14.07. 5:00 7(6000m) 7(6600m) 8(10500m)
Di, 14.07. 4:50 7(6000m) 7(6600m) 8(10500m)
Di, 14.07. 4:40 6(6000m) 6(6600m) 8(10500m)
Di, 14.07. 4:30 1(1500m) 6(7200m) 8(10500m)
Di, 14.07. 4:20 1(1500m) 6(7200m) 8(10500m)
Di, 14.07. 4:00 8(10500m) 8(10500m)
Di, 14.07. 3:00 6(10500m)
Di, 14.07. 1:00 1(4800m) 8(8400m) 8(10500m)
Ortszeit Luftdruck NN (hPa) Tendenz (hPa in 3 Std.)
Di, 14.07. 2:00 1018 - 1,2
Mo, 13.07. 20:00 1020 - 1,4
Mo, 13.07. 14:00 1023 - 1,5
Mo, 13.07. 8:00 1026 - 0,1
Mo, 13.07. 2:00 1027 - 0,5
So, 12.07. 20:00 1027 - 0,6
So, 12.07. 14:00 1028 + 0,1
So, 12.07. 8:00 1027 + 0,8
Ortszeit Luftdruck NN (hPa) Tendenz (hPa in 3 Std.)
Di, 14.07. 5:10 1016 keine Meldung
Di, 14.07. 5:00 1016 - 1,9
Di, 14.07. 4:50 1016 keine Meldung
Di, 14.07. 4:40 1017 keine Meldung
Di, 14.07. 4:30 1017 - 1,7
Di, 14.07. 4:20 1017 keine Meldung
Di, 14.07. 4:00 1017 - 1,7
Di, 14.07. 3:00 1018 - 1,3
Di, 14.07. 1:00 1019 - 1,0
Ortszeit Schneehöhe (cm)
Di, 14.07. 2:00 -
Mo, 13.07. 20:00 -
Mo, 13.07. 14:00 -
Mo, 13.07. 8:00 -
Mo, 13.07. 2:00 -
So, 12.07. 20:00 -
So, 12.07. 14:00 -
So, 12.07. 8:00 -
Ortszeit Schneehöhe (cm)
Di, 14.07. 5:10 -
Di, 14.07. 5:00 -
Di, 14.07. 4:50 -
Di, 14.07. 4:40 -
Di, 14.07. 4:30 -
Di, 14.07. 4:20 -
Di, 14.07. 4:00 -
Di, 14.07. 3:00 -
Di, 14.07. 1:00 -
Link zu dieser Seite / Seite empfehlen

Das Wetter in ...